This is the latest recevied weather packets stored in our database for station/object DL9GJ-4. If no packets are shown the sender has not sent any weather packets the latest 10 day(s).
| Time | Temp. | Humidity | Pressure | Rain* | Wind** | Luminosity | Snow |
|---|---|---|---|---|---|---|---|
| 1777978818 | 13.89° C | 43% | 1007 hPa | 0 mm | - | - | - |
| 1777978456 | 13.89° C | 42% | 1007 hPa | 0 mm | - | - | - |
| 1777977734 | 13.89° C | 41% | 1007 hPa | 0 mm | - | - | - |
| 1777977009 | 13.89° C | 38% | 1007 hPa | 0 mm | - | - | - |
| 1777976283 | 14.44° C | 36% | 1007 hPa | 0 mm | - | - | - |
| 1777975199 | 15° C | 34% | 1007 hPa | 0 mm | - | - | - |
| 1777974838 | 15° C | 34% | 1007 hPa | 0 mm | - | - | - |
| 1777974475 | 15° C | 33% | 1007 hPa | 0 mm | - | - | - |
| 1777973753 | 15° C | 28% | 1007 hPa | 0 mm | - | - | - |
| 1777973029 | 15° C | 27% | 1007 hPa | 0 mm | - | - | - |
| 1777972667 | 15° C | 28% | 1007 hPa | 0 mm | - | - | - |
| 1777970490 | 15° C | 37% | 1007 hPa | 0 mm | - | - | - |
| 1777970129 | 14.44° C | 36% | 1007 hPa | 0 mm | - | - | - |
| 1777969768 | 14.44° C | 37% | 1007 hPa | 0 mm | - | - | - |
| 1777969403 | 14.44° C | 38% | 1007 hPa | 0 mm | - | - | - |
| 1777968681 | 13.89° C | 42% | 1007 hPa | 0 mm | - | - | - |
| 1777968322 | 13.89° C | 42% | 1007 hPa | 0 mm | - | - | - |
| 1777967596 | 13.33° C | 47% | 1007 hPa | 0 mm | - | - | - |
| 1777967234 | 12.78° C | 48% | 1007 hPa | 0 mm | - | - | - |
| 1777966874 | 12.78° C | 52% | 1007 hPa | 0 mm | - | - | - |
| 1777963996 | 11.67° C | 56% | 1008 hPa | 0 mm | - | - | - |
| 1777963634 | 11.11° C | 56% | 1008 hPa | 0 mm | - | - | - |
| 1777962193 | 10° C | 56% | 1008 hPa | 0 mm | - | - | - |
| 1777961834 | 10° C | 55% | 1008 hPa | 0 mm | - | - | - |
| 1777961473 | 9.44° C | 55% | 1008 hPa | 0 mm | - | - | - |
* Rain latest hour (hover to see other rain measurements)
** Current wind speed in m/s (hover to see current wind gust speed)